Вернуться в каталог

SL-16 DEB

АктивенLEO
NORAD 22441·DEBRIS·🇷🇺 Russia

Запущен Dec 25, 1992 с Baikonur Cosmodrome

Loading…

Ближайшие Пролёты (ближайшие 24 часа)

TLE

СвежийSource: Space-Track

Эпоха: Sep 14, 2026, 00:46 UTC

1 22441U 92093EJ  26257.03206051  .00000545  00000-0  35561-3 0  9992
2 22441  71.1940  86.4399 0081690 146.5611  15.1447 14.04976869722630

Отслеживайте SL-16 DEB в реальном времени с AllMySat

Download on the App Store